Location: ????
(30.2663°N, 31.2484°E)
Time: 18:27:17
(UTC+00:00)

CZ-2C R/B - Pass Details

Date: 30 March 2023
Orbit: 784 x 869 km, 98.3° (Epoch: 04 June)

Event Time Altitude Azimuth Distance (km) Brightness Sun altitude
Exits shadow 02:41:08 21° 267° (W) 1,825 3.8 -14.9°
Drops below altitude 10° 02:45:08 10° 313° (NW) 2,499 4.8 -14.1°
Sets 02:48:05 0° 329° (NNW) 3,429 5.7 -13.5°
